Other Surface Observations
Issued by NWS Tucson, AZ

Home | Current Version | Previous Version | Text Only | Print | Product List | Glossary On
Versions: 1 2 3 4 5 6 7 8 9 10 11 12 13 14 15 16 17 18 19 20 21 22 23 24 25 26 27 28 29 30 31 32 33 34 35 36 37 38 39 40 41 42 43 44 45 46 47 48 49 50
000
SXUS55 KTWC 240215
OSOTWC

WEATHER ROUNDUP FOR SOUTHEAST ARIZONA
NATIONAL WEATHER SERVICE TUCSON AZ
715 PM MST SUN APR 23 2017

AZZ504>506-514-240315-
LOCATION       SKY/WX    TMP DP  RH WIND       PRES   REMARKS
TUCSON         CLEAR     89  14   6 W12       29.80R
DAVIS-MONTHAN  MOCLDY    88   9   5 W8        29.78S
CHILDRENS PARK N/A      N/A N/A   6 SW10              PIMA CO DEQ
ALVERNON/22ND  N/A       95 N/A N/A W11               PIMA CO DEQ
CHERRY/GLENN   N/A      N/A N/A N/A N/A               PIMA CO DEQ
TANGERINE      N/A       94 N/A N/A W12               PIMA CO DEQ
CONTL RANCH    N/A       95  18   6 W11               PIMA CO DEQ
GRANT/1ST      N/A       95  14   5 SW10              PIMA CO DEQ
CRAYCROFT/22ND N/A       94  13   5 W10               PIMA CO DEQ
GOLFLINKS/KOLB N/A      N/A N/A N/A N/A               PIMA CO DEQ
AJO/12TH       N/A       95  14   5 SW11              PIMA CO DEQ
FAIRGROUNDS    N/A       92 N/A N/A SW14              PIMA CO DEQ
SAGUARO        N/A       92  11   5 SW9G17            *SABINO CYN
SAN CARLOS     N/A       89  17   7 W9G17             *SAN CARLOS
GREEN VALLEY   N/A       91  15   6 SW11              PIMA CO DEQ
HORSE CAMP CYN N/A       85  17   8 W11G26            *ARAVAIPA CYN
RINCON MTNS    N/A       61   6  11 SW4G15            *NR MANNING CAMP
$$

AZZ509>511-240315-
LOCATION       SKY/WX    TMP DP  RH WIND       PRES   REMARKS
SAFFORD        CLEAR     84  27  12 CALM      29.76F
STRAY HORSE    N/A       62  17  17 N/A               *
TRAIL CABIN    N/A       70  23  17 SW4               *N OF GRANVILLE
BLACK HILLS    NOT AVBL
DRY LAKE       N/A       63  24  22 W5G11             *NATANES MTNS
NOON CREEK     N/A       70  32  24 SW6G11            *PINALENO MTNS
COLUMBINE      N/A       58  12  16 SW8G22            *PINALENO MTNS
GUTHRIE        N/A       74  25  16 SW8G14            *SW OF GUTHRIE
$$

AZZ502-503-513-240315-
LOCATION       SKY/WX    TMP DP  RH WIND       PRES   REMARKS
NOGALES        CLEAR     80  10   7 SW9       29.89S
SELLS          N/A       89  20   8 NE14G21           *
SASABE         N/A       87  16   7 W13G18            *ALTAR VLY
HOPKINS        N/A       71   7   8 W10G19            *SANTA RITA MTNS
CARR CYN       N/A       75  12   9 S3G11             *W OF HEREFORD
$$

AZZ507-508-512-240315-
LOCATION       SKY/WX    TMP DP  RH WIND       PRES   REMARKS
SIERRA VISTA   CLEAR     77   6   6 W12       29.94S
DOUGLAS        CLEAR     82  12   7 W15       29.88R
EMPIRE MTNS    NOT AVBL
MULESHOE RANCH N/A       85  14   7 W9G20             *PRESERVE
HEADQUARTERS   N/A       80  10   7 W8G15             *CHIRICAHUA MTNS
$$

.............................NOTES.............................
THIS IS AN AUTOMATED COLLECTIVE WITH MINIMAL QUALITY CONTROL.
PIMA CO DEQ SITES HAVE NONSTANDARD WIND SENSOR HEIGHTS.
PIMA CO DEQ SITES DO NOT REPORT WIND GUSTS.
* INDICATES WIND SENSORS LOCATED AT 20 FEET INSTEAD OF 33 FEET.
..............................KEY..............................
SKY/WX - SKY CONDITION/WEATHER
TMP    - TEMPERATURE IN FAHRENHEIT
DP     - DEWPOINT IN FAHRENHEIT
RH     - RELATIVE HUMIDITY IN PERCENT
WIND   - DIRECTION AND SPEED IN MILES PER HOUR (MPH)
VRB    - VARIABLE WIND DIRECTION
PRES   - MEAN SEA LEVEL PRESSURE IN INCHES OF MERCURY
         F - FALLING PRESSURE   R - RISING PRESSURE
         S - STEADY PRESSURE
VSB    - VISIBILITY IN MILES
HX     - HEAT INDEX IN FAHRENHEIT
WCI    - WIND CHILL INDEX IN FAHRENHEIT
N/A    - NOT AVAILABLE
AFB    - AIR FORCE BASE
         DAVIS-MONTHAN IS DAVIS-MONTHAN AIR FORCE BASE
CYN    - CANYON
MTNS   - MOUNTAINS
NCA    - NATIONAL CONSERVATION AREA
NR     - NEAR
VLY    - VALLEY
CONTL  - CONTINENTAL
PIMA CO DEQ - PIMA COUNTY DEPT OF ENVIRONMENTAL QUALITY



USA.gov is the U.S. government's official web portal to all federal, state and local government web resources and services.